DECAYED
Showing default

STRIX-BETA, 51847 (Decayed)

Orbit data source: Space-Track

STRIX-BETA, 51847 was a payload satellite owned by Synspective (JP) in LEO that was launched on Mon, 28 Feb 2022 UTC via an ELECTRON launch vehicle from the Rocket Lab Launch Complex (RLLC). Payload-class satellites include a variety of spacecraft equipped with specific instruments for various scientific and technological missions. These include communications satellites like Starlink; space stations such as the ISS; scientific satellites like the Hubble; Earth observation satellites from companies like Planet Labs, Umbra, and HawkEye 360; GPS; miniature CubeSats for education and research; and military/defense satellites.

Not visible in the next 10 days
Identifier
51847, 2022-020A
Orbit
Decayed
Country
Flag of JPJP / JPN
Related business
Manufacturer
Synspective
Mission
Decayed Commercial Radar Imaging
Bus & Motor
STRIX, Unknown motor
Mass
150 kg wet, 150 kg dry
Launch date (UTC)
2022-02-28 (4 years ago)
Launch vehicle
ELECTRON
Launch site
Rocket Lab Launch Complex (RLLC)
Object type
Payload
Rocket body
Debris
Shape & HBR
Box + 2 Pan, 1.0 m
Radar Cross Section
1.052 m², Medium (>0.1 m² and < 1m²)

Expand to show TLE details & history
Last TLE update: 2 months ago

TLE from 2 months ago
0 STRIX-BETA
1 51847U 22020A   26106.06746456  .11867917  26520-5  58754-3 0  9996
2 51847  97.5507 205.1583 0014237 266.8993  93.0677 16.41395300228921
Epoch: 2026-04-16T01:37Z
TLE epoch observation values (Epoch: 2026-04-16T01:37:08.937Z)
Latitude
-0.00013°
Longitude
-23.34925°
Altitude
165.854 km
Speed
7.806 km/s
True Right ascension
13h 40m 37s
True Declination
0° 00' 00"
Sunlit
Object was in full shadow at epoch
Visualization orbit readout
Latitude
Unknown
Longitude
Unknown
Altitude
Unknown
Speed
Unknown
Apparent Right ascension
Unknown
Apparent Declination
Unknown
Sunlit
N/A
Visualization observer readout
Local Sidereal Time
21:32:15
Azimuth
Unknown
Elevation
Unknown
Doppler factor
Unknown
Orbital elements
Apogee altitude
168.213 km
Perigee altitude
149.599 km
Semi-major axis
6,537.043 km
Eccentricity
0.00142
Inclination
97.5507°
RAAN
205.1583°
Arg. of periapsis
266.8993°
True anomaly
93.23059°
Mean anomaly
93.0677°
Eccentric anomaly
93.14915°
Mean motion
4.10649 °/min
Orbital period
87.67 mins
BSTAR
0.00058754
Loading maneuver chart data...
Computing Atmospheric mass density...
Loading historical data...
Loading historical data...
Loading historical data...
Loading historical data...
Loading historical data...
Loading historical data...
Loading historical data...

Documentation

Showing up to 5 results
|